This demonstration page uses our WeatherBlox Daily Observations layout. Learn more.

Left ArrowRight Arrow

41.12389, -100.76542

Hourly Observations for May 20, 2017

Temp ( °F °C ) Dew Point ( °F °C ) Humidity (%) Winds ( mph kmh ) Pressure ( in mb ) Visibility ( mi km ) Precip ( " mm )
12:53 am 00:53 Cloudy with Light Rain 42 5.6 40 4.4 92 92 N 13 20 30.04 1017 6 10 0.03 0.76
1:37 am 01:37 Cloudy with Light Rain 42 5.6 40 4.4 92 92 N 10 17 30.09 1019 10 16 0.03 0.76
1:53 am 01:53 Cloudy with Light Rain 42 5.6 40 4.4 92 92 N 12 19 30.04 1017 10 16 0.03 0.76
1:57 am 01:57 Cloudy with Light Rain 42 5.6 40 4.4 92 92 N 15 24 30.09 1019 10 16 0.01 0.25
2:04 am 02:04 Cloudy with Light Rain 41 5 38 3.3 89 89 N 15 24 30.09 1019 10 16 0.01 0.25
2:53 am 02:53 Cloudy with Light Rain 40 4.4 38 3.3 93 93 NNW 14 22 30.01 1016 7 11 0.04 1.02
3:15 am 03:15 Cloudy with Light Rain 40 4.4 38 3.3 93 93 NNW 15 24 30.03 1017 10 16 0.00 0.03
3:26 am 03:26 Cloudy with Light Rain 39 3.9 37 2.8 93 93 NNW 14 22 30.03 1017 10 16 0.00 0.03
3:53 am 03:53 Cloudy 39 3.9 37 2.8 93 93 N 13 20 30.00 1016 10 16 0.00 0.03
4:53 am 04:53 Cloudy with Light Rain 38 3.3 36 2.2 93 93 NNW 13 20 30.01 1016 8 13 0.02 0.51
5:22 am 05:22 Cloudy with Light Rain 37 2.8 35 1.7 93 93 NNW 12 19 30.03 1017 10 16 0.01 0.25
5:53 am 05:53 Cloudy with Light Rain 37 2.8 35 1.7 93 93 NNW 14 22 29.99 1016 9 14 0.04 1.02
6:53 am 06:53 Cloudy with Light Rain 36 2.2 35 1.7 97 97 NNW 14 22 29.99 1016 10 16 0.04 1.02
7:03 am 07:03 Cloudy with Light Rain 36 2.2 35 1.7 97 97 NNW 15 24 30.06 1018 10 16 0.00 0.03
7:46 am 07:46 Cloudy with Light Rain 37 2.8 35 1.7 93 93 NW 16 26 30.03 1017 10 16 0.01 0.25
7:53 am 07:53 Cloudy with Light Rain 37 2.8 35 1.7 93 93 NNW 14 22 29.98 1015 10 16 0.01 0.25
8:40 am 08:40 Cloudy with Light Rain 37 2.8 35 1.7 93 93 NW 13 20 30.03 1017 10 16 0.00 0.03
8:53 am 08:53 Cloudy with Light Rain 37 2.8 35 1.7 93 93 WNW 13 20 29.99 1016 9 14 0.00 0.03
9:00 am 09:00 Cloudy with Light Rain 37 2.8 36 2.2 96 96 WNW 10 17 30.03 1017 10 16 0.00 0.03
9:53 am 09:53 Cloudy with Rain 36 2.2 35 1.7 97 97 NW 15 24 30.01 1016 4 6 0.04 1.02
10:53 am 10:53 Cloudy with Rain 36 2.2 35 1.7 97 97 NW 14 22 30.02 1017 4 6 0.08 2.03
11:10 am 11:10 Cloudy with Rain 36 2.2 35 1.7 97 97 NW 12 19 30.09 1019 4 6 0.02 0.51
11:24 am 11:24 Cloudy with Light Rain 37 2.8 35 1.7 93 93 NW 12 19 30.06 1018 5 8 0.04 1.02
11:42 am 11:42 Cloudy with Light Rain 37 2.8 35 1.7 93 93 NW 16 26 30.06 1018 6 10 0.05 1.27
11:49 am 11:49 Cloudy with Light Rain 37 3 36 2 93 93 NW 16 26 30.06 1018 7 11 0.06 1.52
11:53 am 11:53 Cloudy with Light Rain 37 2.8 35 1.7 93 93 NW 17 28 30.02 1017 7 11 0.06 1.52
12:04 pm 12:04 Cloudy with Light Rain 36 2.2 35 1.7 97 97 NW 15 24 30.09 1019 8 13 0.01 0.25
12:22 pm 12:22 Cloudy with Rain 37 2.8 36 2.2 96 96 NW 12 19 30.06 1018 5 8 0.03 0.76
12:48 pm 12:48 Cloudy with Light Rain 37 3 36 2 93 93 NNW 15 24 30.06 1018 6 10 0.05 1.27
12:53 pm 12:53 Cloudy with Light Rain 38 3.3 36 2.2 93 93 NNW 13 20 30.02 1017 5 8 0.06 1.52
1:36 pm 13:36 Cloudy with Light Rain 39 3.9 37 2.8 93 93 NNW 15 24 30.06 1018 5 8 0.02 0.51
1:44 pm 13:44 Cloudy with Light Rain 39 3.9 37 2.8 93 93 NNW 17 28 30.06 1018 5 8 0.03 0.76
1:53 pm 13:53 Cloudy with Light Rain 39 3.9 37 2.8 93 93 NNW 17 28 30.02 1017 5 8 0.04 1.02
2:11 pm 14:11 Cloudy with Light Rain 36 2.2 35 1.7 97 97 NW 17 28 30.09 1019 5 8 0.02 0.51
2:29 pm 14:29 Cloudy with Light Snow 35 1.7 33 0.6 93 93 WNW 14 22 30.09 1019 2 3 0.04 1.02
2:41 pm 14:41 Cloudy with Light Snow 34 1.1 33 0.6 97 97 WNW 16 26 30.09 1019 1 2 0.06 1.52
2:50 pm 14:50 Cloudy with Light Snow 36 2 34 1 93 93 WNW 16 26 30.09 1019 2 3 0.07 1.78
2:53 pm 14:53 Cloudy with Light Snow 36 2.2 34 1.1 93 93 WNW 16 26 30.04 1017 3 4 0.07 1.78
3:00 pm 15:00 Cloudy with Light Snow 37 2.8 35 1.7 93 93 NW 16 26 30.06 1018 6 10 0.00 0.03
3:13 pm 15:13 Cloudy with Light Rain 38 3.3 36 2.2 93 93 NW 18 30 30.06 1018 9 14 0.01 0.25
3:29 pm 15:29 Cloudy with Light Rain 40 4.4 38 3.3 93 93 NW 16 26 30.06 1018 10 16 0.02 0.51
3:42 pm 15:42 Cloudy with Light Rain 42 5.6 39 3.9 89 89 NNW 21 33 30.03 1017 10 16 0.02 0.51
3:53 pm 15:53 Cloudy with Light Rain 43 6.1 39 3.9 86 86 NW 17 28 30.02 1017 10 16 0.03 0.76
4:53 pm 16:53 Cloudy with Light Rain 41 5 36 2.2 82 82 NNW 18 30 30.04 1017 10 16 0.00 0.03
5:53 pm 17:53 Cloudy with Light Rain 39 3.9 36 2.2 89 89 NNW 15 24 30.06 1018 10 16 0.00 0.03
6:53 pm 18:53 Cloudy 40 4.4 37 2.8 89 89 N 6 9 30.05 1018 10 16 0.00 0.03
7:53 pm 19:53 Cloudy 42 5.6 38 3.3 85 85 WNW 3 6 30.04 1017 10 16 0.00 0.00
8:53 pm 20:53 Sunny 41 5 38 3.3 89 89 Calm 30.05 1018 10 16 0.00 0.00
9:36 pm 21:36 Mostly Clear with Mist and Fog 36 2.2 35 1.7 97 97 Calm 30.12 1020 2 3 0.00 0.00
9:53 pm 21:53 Clear with Mist and Fog 38 3.3 37 2.8 97 97 Calm 30.07 1018 2 3 0.00 0.00
10:05 pm 22:05 Clear with Mist and Fog 35 1.7 35 1.7 100 100 Calm 30.12 1020 1 1 0.00 0.00
10:13 pm 22:13 Clear with Mist and Fog 36 2.2 35 1.7 97 97 SSW 3 6 30.12 1020 1 2 0.00 0.00
10:20 pm 22:20 Clear with Mist and Fog 36 2.2 36 2.2 100 100 Calm 30.12 1020 3 4 0.00 0.00
10:31 pm 22:31 Clear with Mist and Fog 34 1.1 34 1.1 100 100 Calm 30.12 1020 1 2 0.00 0.00
10:53 pm 22:53 Clear with Mist and Fog 35 1.7 34 1.1 96 96 Calm 30.09 1019 1 2 0.00 0.00
11:15 pm 23:15 Clear with Fog 33 0.6 33 0.6 100 100 Calm 30.12 1020 1 1 0.00 0.00
11:44 pm 23:44 Clear with Mist and Fog 34 1.1 34 1.1 100 100 NW 3 6 30.12 1020 1 2 0.00 0.00
11:53 pm 23:53 Clear with Mist and Fog 34 1.1 33 0.6 97 97 WNW 5 7 30.09 1019 1 1 0.00 0.00

Powered by AerisWeather